Change the Weather History Date:

Wednesday, October 5, 2011

  Actual Average Record
Temperature  
Mean Temperature 74 °F -  
Max Temperature 84 °F 78 °F - ()
Min Temperature 64 °F 52 °F - ()
Cooling Degree Days 9    
Growing Degree Days 24 (Base 50)    
Moisture  
Dew Point 52 °F    
Average Humidity 50    
Maximum Humidity 68    
Minimum Humidity 25    
Precipitation  
Precipitation 0.01 in 0.02 in - ()
Sea Level Pressure  
Sea Level Pressure 30.20 in    
Wind  
Wind Speed 3 mph ()    
Max Wind Speed 16 mph    
Max Gust Speed -    
Visibility 6.9 miles    
Events Thunderstorm    
T = Trace of Precipitation, MM = Missing Value Source: Averaged Metar Reports

Daily Weather History Graph

Daily Weather History Graph

Search for Another Location

Airport or City:

Trip Planner

Search our weather history database for the weather conditions in past years. The results will help you decide how hot, cold, wet, or windy it might be!

Date:

Astronomy

Oct. 05, 2011 Rise Set
Actual Time 6:23 AM WET 6:08 PM WET
Civil Twilight 5:59 AM WET 6:32 PM WET
Nautical Twilight 5:31 AM WET 7:00 PM WET
Astronomical Twilight 5:03 AM WET 7:28 PM WET
Moon 2:18 PM WET (10/5) 12:19 AM WET (10/5)
Length of Visible Light 12h 33m
Length of Day
11h 45m
Waxing Gibbous, 64% of the Moon is Illuminated
Oct 5
Waxing Gibbous
Oct 12
Full
Oct 20
Last Quarter
Oct 26
New
Nov 2
First Quarter

Hourly Weather History & Observations

Time (WET) Temp. Dew Point Humidity Pressure Visibility Wind Dir Wind Speed Gust Speed Precip Events Conditions
12:00 AM 70 °F 55 °F 50%  in 6 mi East 5.8 mph - -   Scattered Clouds
12:00 AM 69.8 °F 55.4 °F 60% 30.24 in 6.2 mi East 5.8 mph - N/A   Partly Cloudy
2:00 AM 69.8 °F 55.4 °F 60% 30.24 in 6.2 mi Variable 2.3 mph - N/A   Partly Cloudy
3:00 AM 68 °F 54 °F 52%  in 6 mi Calm Calm - -   Scattered Clouds
3:00 AM 68.0 °F 55.4 °F 64% 30.24 in 6.2 mi Calm Calm - N/A   Partly Cloudy
4:00 AM 66.2 °F 53.6 °F 64% 30.21 in 6.2 mi Variable 2.3 mph - N/A   Partly Cloudy
5:00 AM 66.2 °F 53.6 °F 64% 30.21 in 6.2 mi Variable 2.3 mph - N/A   Partly Cloudy
6:00 AM 65 °F 53 °F 56%  in 9 mi NW 1.2 mph - -   Clear
6:00 AM 66.2 °F 53.6 °F 64% 30.21 in - Variable 1.2 mph - N/A   Clear
7:00 AM 66.2 °F 53.6 °F 64% 30.24 in - Calm Calm - N/A   Clear
8:00 AM 68.0 °F 53.6 °F 60% 30.24 in - Calm Calm - N/A   Clear
9:00 AM 71 °F 54 °F 46%  in 9 mi East 2.3 mph - -   Scattered Clouds
9:00 AM 71.6 °F 55.4 °F 57% 30.24 in 6.2 mi Variable 2.3 mph - N/A   Partly Cloudy
10:00 AM 73.4 °F 53.6 °F 50% 30.24 in 6.2 mi Variable 2.3 mph - N/A   Partly Cloudy
11:00 AM 75.2 °F 51.8 °F 44% 30.24 in 6.2 mi Variable 1.2 mph - N/A   Partly Cloudy
12:00 PM 78 °F 51 °F 29%  in 9 mi ENE 2.3 mph - -   Scattered Clouds
12:00 PM 78.8 °F 51.8 °F 39% 30.21 in 6.2 mi Variable 3.5 mph - N/A   Partly Cloudy
1:00 PM 82.4 °F 48.2 °F 30% 30.15 in 6.2 mi Variable 2.3 mph - N/A   Partly Cloudy
2:00 PM 84.2 °F 44.6 °F 25% 30.12 in 6.2 mi Variable 2.3 mph - N/A   Partly Cloudy
3:00 PM 82.4 °F 46.4 °F 28% 33.05 in 6.2 mi ENE 4.6 mph - N/A   Partly Cloudy
4:00 PM 80.6 °F 50.0 °F 34% 30.09 in 6.2 mi South 4.6 mph - N/A Thunderstorm Thunderstorm
5:00 PM 73.4 °F 50.0 °F 44% 30.12 in 6.2 mi SSW 9.2 mph - N/A Thunderstorm Thunderstorm
6:00 PM 74 °F 49 °F 30%  in 12 mi South 9.2 mph - - Thunderstorm Thunderstorm
6:00 PM 75.2 °F 50.0 °F 41% 30.12 in 6.2 mi South 9.2 mph - N/A Thunderstorm Thunderstorm
7:00 PM 71.6 °F 50.0 °F 46% 30.15 in 6.2 mi NE 10.4 mph - N/A Thunderstorm Thunderstorm
8:00 PM 68.0 °F 53.6 °F 60% 30.21 in 6.2 mi NE 16.1 mph - N/A Thunderstorm Thunderstorm
9:00 PM 67 °F 55 °F 57%  in 12 mi ENE 10.4 mph - - Thunderstorm Light Thunderstorm
9:00 PM 66.2 °F 55.4 °F 68% 30.24 in 6.2 mi NE 10.4 mph - N/A   Partly Cloudy
10:00 PM 66.2 °F 53.6 °F 64% 30.24 in 6.2 mi Variable 2.3 mph - N/A Thunderstorm Thunderstorm
11:00 PM 66.2 °F 53.6 °F 64% 30.24 in 6.2 mi Variable 1.2 mph - N/A Thunderstorm Thunderstorm